TimeCDT,TemperatureF,Dew PointF,Humidity,Sea Level PressureIn,VisibilityMPH,Wind Direction,Wind SpeedMPH,Gust SpeedMPH,PrecipitationIn,Events,Conditions,WindDirDegrees,DateUTC
12:55 AM,71.1,64.0,78,29.85,8.0,SSE,12.7,-,N/A,,Overcast,150,2013-05-19 05:55:00
1:21 AM,69.8,64.4,83,29.85,8.0,SSE,10.4,-,N/A,,Overcast,150,2013-05-19 06:21:00
1:29 AM,69.8,64.4,83,29.85,8.0,SE,9.2,-,N/A,,Overcast,140,2013-05-19 06:29:00
1:55 AM,69.1,64.0,84,29.84,8.0,SSE,6.9,-,N/A,,Scattered Clouds,150,2013-05-19 06:55:00
2:55 AM,69.1,64.9,87,29.84,8.0,SSE,9.2,-,N/A,,Mostly Cloudy,150,2013-05-19 07:55:00
3:55 AM,69.1,64.9,87,29.82,8.0,SSE,9.2,-,N/A,,Mostly Cloudy,150,2013-05-19 08:55:00
4:09 AM,69.8,66.2,88,29.84,8.0,South,8.1,-,N/A,Thunderstorm,Overcast,180,2013-05-19 09:09:00
4:31 AM,69.8,66.2,88,29.84,7.0,South,6.9,-,0.00,Thunderstorm,Thunderstorm,180,2013-05-19 09:31:00
4:45 AM,68.0,66.2,94,29.83,-9999.0,East,5.8,-,0.00,Thunderstorm,Thunderstorm,80,2013-05-19 09:45:00
4:55 AM,69.1,66.0,90,29.81,7.0,East,8.1,-,0.00,,Unknown,90,2013-05-19 09:55:00
5:55 AM,66.9,64.9,93,29.81,6.0,ESE,5.8,-,N/A,,Clear,120,2013-05-19 10:55:00
6:55 AM,66.2,66.2,100,29.80,3.0,ESE,6.9,-,N/A,,Clear,110,2013-05-19 11:55:00
7:55 AM,70.0,68.0,93,29.79,4.0,SE,12.7,-,N/A,,Clear,140,2013-05-19 12:55:00
8:38 AM,73.4,69.8,88,29.85,5.0,South,12.7,-,N/A,,Partly Cloudy,180,2013-05-19 13:38:00
8:55 AM,73.0,69.1,87,29.86,4.0,South,16.1,24.2,N/A,,Scattered Clouds,190,2013-05-19 13:55:00
9:06 AM,73.4,69.8,88,29.87,4.0,South,15.0,-,N/A,,Mostly Cloudy,170,2013-05-19 14:06:00
9:14 AM,73.4,69.8,88,29.87,4.0,South,11.5,-,N/A,,Mostly Cloudy,180,2013-05-19 14:14:00
9:48 AM,73.4,69.8,88,29.88,4.0,South,15.0,20.7,N/A,Thunderstorm,Mostly Cloudy,190,2013-05-19 14:48:00
9:55 AM,73.9,70.0,87,29.86,4.0,South,10.4,20.7,N/A,Thunderstorm,Mostly Cloudy,190,2013-05-19 14:55:00
10:09 AM,75.2,71.6,89,29.84,5.0,South,8.1,-,0.00,Rain,Light Rain,180,2013-05-19 15:09:00
10:18 AM,75.2,69.8,83,29.82,5.0,South,8.1,-,0.00,,Haze,180,2013-05-19 15:18:00
10:55 AM,75.9,70.0,82,29.74,5.0,ESE,15.0,-,0.00,,Haze,120,2013-05-19 15:55:00
11:55 AM,79.0,69.1,72,29.74,6.0,SE,11.5,20.7,N/A,,Haze,140,2013-05-19 16:55:00
12:55 PM,82.9,66.9,58,29.75,10.0,South,15.0,23.0,N/A,,Clear,180,2013-05-19 17:55:00
1:55 PM,84.2,64.4,51,29.73,10.0,South,16.1,27.6,N/A,,Clear,170,2013-05-19 18:55:00
2:55 PM,86.0,64.9,49,29.70,10.0,South,18.4,27.6,N/A,,Partly Cloudy,170,2013-05-19 19:55:00
3:25 PM,82.4,66.2,58,29.71,10.0,South,16.1,-,N/A,Thunderstorm,Clear,180,2013-05-19 20:25:00
3:55 PM,82.0,68.0,62,29.69,8.0,SSW,8.1,-,0.00,,Mostly Cloudy,210,2013-05-19 20:55:00
4:55 PM,82.9,70.0,65,29.65,8.0,South,5.8,-,N/A,,Clear,190,2013-05-19 21:55:00
5:55 PM,84.0,68.0,58,29.61,8.0,South,17.3,24.2,N/A,,Clear,170,2013-05-19 22:55:00
6:55 PM,82.0,68.0,62,29.61,8.0,SSE,15.0,-,N/A,,Scattered Clouds,160,2013-05-19 23:55:00
7:55 PM,79.0,68.0,69,29.61,8.0,SSE,9.2,-,N/A,,Clear,160,2013-05-20 00:55:00
8:55 PM,80.1,64.9,60,29.62,10.0,SSE,16.1,-,N/A,Thunderstorm,Overcast,160,2013-05-20 01:55:00
9:18 PM,66.2,62.6,88,29.70,3.0,SW,10.4,34.5,0.03,Rain-Thunderstorm,Thunderstorms and Rain,230,2013-05-20 02:18:00
9:28 PM,66.2,62.6,88,29.71,-9999.0,SSW,16.1,26.5,0.03,Thunderstorm,Thunderstorm,210,2013-05-20 02:28:00
9:57 PM,62.6,60.8,94,29.83,-9999.0,WSW,17.3,28.8,0.10,Thunderstorm,Thunderstorm,250,2013-05-20 02:57:00
10:05 PM,62.6,59.0,88,29.82,2.5,WSW,10.4,28.8,0.17,Rain-Thunderstorm,Rain,250,2013-05-20 03:05:00
10:08 PM,62.6,59.0,88,29.82,4.0,WSW,10.4,26.5,0.17,Rain,Light Rain,250,2013-05-20 03:08:00
10:55 PM,62.1,61.0,96,29.69,10.0,SE,6.9,-,0.18,,Overcast,140,2013-05-20 03:55:00
11:55 PM,63.0,60.1,90,29.75,10.0,SSW,12.7,-,N/A,,Mostly Cloudy,210,2013-05-20 04:55:00